Weather History for KUAO - September, 2013

Change the Weather History Date:

Saturday, September 28, 2013

  Actual Average Record
Temperature  
Mean Temperature 58 °F -  
Max Temperature 65 °F - 86 °F (2008)
Min Temperature 52 °F - 42 °F (2001)
Degree Days  
Heating Degree Days 6    
Month to date heating degree days 88  
Since 1 July heating degree days 98  
Cooling Degree Days 0    
Month to date cooling degree days 64  
Year to date cooling degree days 426  
Growing Degree Days 8 (Base 50)    
Moisture  
Dew Point 55 °F    
Average Humidity 87    
Maximum Humidity 100    
Minimum Humidity 73    
Precipitation  
Precipitation 1.05 in - 1.07 in (2013)
Month to date precipitation 5.49  
Year to date precipitation 19.07  
Sea Level Pressure  
Sea Level Pressure 29.70 in    
Wind  
Wind Speed 17 mph (South)    
Max Wind Speed 31 mph    
Max Gust Speed 39 mph    
Visibility 8 miles    
Events Rain    
T = Trace of Precipitation, MM = Missing Value Source: NWS Daily Summary

Daily Weather History Graph

Daily Weather History Graph

Search for Another Location

Airport or City:

Trip Planner

Search our weather history database for the weather conditions in past years. The results will help you decide how hot, cold, wet, or windy it might be!

Date:

Astronomy

Sep. 28, 2013 Rise Set
Actual Time 7:05 AM PDT 6:56 PM PDT
Civil Twilight 6:36 AM PDT 7:25 PM PDT
Nautical Twilight 6:02 AM PDT 8:00 PM PDT
Astronomical Twilight 5:27 AM PDT 8:34 PM PDT
Moon 12:44 AM PDT (9/28) 3:31 PM PDT (9/28)
Length of Visible Light 12h 49m
Length of Day
11h 50m
Waning Crescent, 35% of the Moon is Illuminated
Sep 28
Waning Crescent
Oct 4
New
Oct 11
First Quarter
Oct 18
Full
Oct 26
Last Quarter

Hourly Weather History & Observations

Time (PDT) Temp. Dew Point Humidity Pressure Visibility Wind Dir Wind Speed Gust Speed Precip Events Conditions
12:34 AM 55.4 °F 53.6 °F 94% 29.92 in 7.0 mi South 13.8 mph 23.0 mph 0.02 in Rain Light Rain
12:46 AM 55.4 °F 53.6 °F 94% 29.92 in 10.0 mi South 13.8 mph 19.6 mph 0.02 in Rain Light Rain
12:53 AM 55.9 °F 54.0 °F 93% 29.92 in 10.0 mi South 11.5 mph 20.7 mph 0.02 in Rain Light Rain
1:09 AM 55.4 °F 53.6 °F 94% 29.91 in 10.0 mi South 11.5 mph 19.6 mph 0.00 in   Overcast
1:40 AM 55.4 °F 53.6 °F 94% 29.90 in 10.0 mi South 12.7 mph 20.7 mph 0.00 in   Overcast
1:49 AM 57.2 °F 55.4 °F 94% 29.89 in 10.0 mi South 17.3 mph 23.0 mph 0.01 in Rain Light Rain
1:53 AM 57.0 °F 55.0 °F 93% 29.89 in 10.0 mi South 18.4 mph 25.3 mph 0.01 in Rain Light Rain
2:38 AM 57.2 °F 55.4 °F 94% 29.87 in 10.0 mi South 13.8 mph 23.0 mph 0.01 in   Overcast
2:53 AM 57.0 °F 55.0 °F 93% 29.86 in 10.0 mi South 19.6 mph 25.3 mph 0.01 in   Overcast
3:19 AM 57.2 °F 55.4 °F 94% 29.84 in 10.0 mi South 17.3 mph 29.9 mph N/A   Overcast
3:53 AM 57.9 °F 55.0 °F 90% 29.83 in 10.0 mi South 20.7 mph 27.6 mph N/A   Overcast
4:53 AM 57.9 °F 55.9 °F 93% 29.81 in 10.0 mi South 18.4 mph 27.6 mph 0.00 in Rain Light Rain
5:15 AM 57.2 °F 55.4 °F 94% 29.80 in 10.0 mi South 19.6 mph 27.6 mph 0.01 in Rain Light Rain
5:53 AM 57.9 °F 55.9 °F 93% 29.78 in 6.0 mi South 16.1 mph 26.5 mph 0.06 in Rain Rain
6:03 AM 57.2 °F 55.4 °F 94% 29.78 in 5.0 mi South 17.3 mph 24.2 mph 0.03 in Rain Rain
6:15 AM 57.2 °F 57.2 °F 100% 29.78 in 6.0 mi South 18.4 mph 26.5 mph 0.05 in Rain Light Rain
6:22 AM 57.2 °F 57.2 °F 100% 29.77 in 7.0 mi South 20.7 mph 27.6 mph 0.06 in Rain Light Rain
6:53 AM 57.9 °F 55.9 °F 93% 29.77 in 10.0 mi South 19.6 mph 28.8 mph 0.06 in Rain Light Rain
7:17 AM 59.0 °F 55.4 °F 88% 29.76 in 10.0 mi South 19.6 mph 29.9 mph 0.00 in   Overcast
7:53 AM 59.0 °F 55.9 °F 90% 29.75 in 10.0 mi South 19.6 mph 27.6 mph 0.01 in Rain Light Rain
8:00 AM 59.0 °F 55.4 °F 88% 29.75 in 10.0 mi South 15.0 mph 27.6 mph 0.00 in   Overcast
8:53 AM 59.0 °F 55.9 °F 90% 29.74 in 10.0 mi South 17.3 mph 31.1 mph 0.00 in   Overcast
9:53 AM 60.1 °F 55.9 °F 86% 29.73 in 10.0 mi South 16.1 mph 28.8 mph 0.01 in   Overcast
10:00 AM 60.8 °F 55.4 °F 82% 29.73 in 10.0 mi South 19.6 mph 26.5 mph N/A   Overcast
10:38 AM 60.8 °F 55.4 °F 82% 29.71 in 10.0 mi South 19.6 mph 31.1 mph 0.00 in Rain Light Rain
10:53 AM 62.1 °F 55.9 °F 80% 29.71 in 10.0 mi South 23.0 mph 33.4 mph 0.00 in Rain Light Rain
11:53 AM 61.0 °F 57.0 °F 87% 29.71 in 7.0 mi SSW 20.7 mph 28.8 mph 0.04 in Rain Light Rain
12:53 PM 63.0 °F 55.9 °F 78% 29.67 in 10.0 mi SSW 23.0 mph 34.5 mph 0.00 in   Mostly Cloudy
1:53 PM 63.0 °F 55.9 °F 78% 29.65 in 10.0 mi SSW 15.0 mph 39.1 mph 0.01 in Rain Light Rain
2:53 PM 64.0 °F 55.9 °F 75% 29.62 in 10.0 mi South 19.6 mph 36.8 mph 0.00 in   Overcast
3:53 PM 63.0 °F 57.0 °F 81% 29.59 in 9.0 mi South 24.2 mph 35.7 mph 0.02 in Rain Light Rain
4:53 PM 61.0 °F 59.0 °F 93% 29.56 in 8.0 mi South 19.6 mph 33.4 mph 0.09 in Rain Light Rain
5:30 PM 60.8 °F 57.2 °F 88% 29.54 in 10.0 mi South 25.3 mph 34.5 mph 0.02 in Rain Light Rain
5:53 PM 60.1 °F 57.9 °F 93% 29.53 in 5.0 mi South 19.6 mph 29.9 mph 0.06 in Rain Light Rain
6:10 PM 60.8 °F 57.2 °F 88% 29.52 in 8.0 mi South 17.3 mph 33.4 mph 0.02 in Rain Light Rain
6:17 PM 60.8 °F 57.2 °F 88% 29.56 in 2.0 mi SW 18.4 mph 35.7 mph 0.08 in Rain Heavy Rain
6:20 PM 57.2 °F 57.2 °F 100% 29.56 in 1.2 mi WSW 17.3 mph 35.7 mph 0.14 in Rain Heavy Rain
6:30 PM 55.4 °F 55.4 °F 100% 29.57 in 1.5 mi WSW 16.1 mph 31.1 mph 0.22 in Rain Heavy Rain
6:36 PM 55.4 °F 53.6 °F 94% 29.56 in 2.0 mi WSW 8.1 mph 25.3 mph 0.26 in Rain Heavy Rain
6:41 PM 55.4 °F 53.6 °F 94% 29.57 in 3.0 mi WSW 8.1 mph - 0.27 in Rain Rain
6:53 PM 54.0 °F 54.0 °F 100% 29.58 in 3.0 mi West 8.1 mph - 0.34 in Rain Heavy Rain
6:58 PM 53.6 °F 53.6 °F 100% 29.58 in 2.5 mi Variable 6.9 mph - 0.04 in Rain Heavy Rain
7:14 PM 53.6 °F 53.6 °F 100% 29.57 in 4.0 mi WSW 6.9 mph - 0.10 in Rain Rain
7:53 PM 53.1 °F 52.0 °F 96% 29.60 in 7.0 mi South 5.8 mph - 0.21 in Rain Light Rain
8:53 PM 52.0 °F 51.1 °F 97% 29.62 in 7.0 mi South 8.1 mph - 0.11 in Rain Rain
9:11 PM 51.8 °F 51.8 °F 100% 29.63 in 10.0 mi SSE 9.2 mph - 0.01 in   Overcast
9:22 PM 51.8 °F 51.8 °F 100% 29.64 in 10.0 mi SSE 12.7 mph - 0.01 in   Overcast
9:29 PM 51.8 °F 51.8 °F 100% 29.65 in 10.0 mi SSE 9.2 mph 17.3 mph 0.01 in   Overcast
9:38 PM 51.8 °F 51.8 °F 100% 29.63 in 10.0 mi SSE 9.2 mph - 0.01 in   Overcast
9:46 PM 53.6 °F 51.8 °F 94% 29.63 in 10.0 mi South 9.2 mph - 0.01 in   Overcast
9:53 PM 52.0 °F 52.0 °F 100% 29.63 in 10.0 mi South 10.4 mph - 0.01 in   Mostly Cloudy
10:04 PM 51.8 °F 51.8 °F 100% 29.64 in 10.0 mi South 13.8 mph - N/A   Overcast
10:08 PM 51.8 °F 51.8 °F 100% 29.63 in 10.0 mi South 12.7 mph - N/A   Overcast
10:15 PM 51.8 °F 51.8 °F 100% 29.64 in 10.0 mi South 10.4 mph - N/A   Mostly Cloudy
10:36 PM 51.8 °F 51.8 °F 100% 29.66 in 10.0 mi South 11.5 mph - N/A   Mostly Cloudy
10:53 PM 53.1 °F 52.0 °F 96% 29.65 in 10.0 mi South 12.7 mph - N/A   Mostly Cloudy
11:06 PM 53.6 °F 51.8 °F 94% 29.65 in 10.0 mi South 11.5 mph - N/A   Mostly Cloudy
11:53 PM 53.1 °F 51.1 °F 93% 29.65 in 10.0 mi South 11.5 mph - N/A   Overcast